OBJECT V, 51843

Orbit data source: Space-Track

You're viewing an Uncataloged Satellite

Recently launched and/or uncataloged satellites may have evolving metadata. Metadata may include but not limited to: Owner, Maufacturer, Bus, Motor, and Mission.

OBJECT V, 51843 is a Chinese satellite in SSO that was launched on Sun, 27 Feb 2022 UTC via a CHANG ZHENG 8 launch vehicle from the Wenchang Satellite Launch Center (WSC). Unknown objects in Earth's orbit typically refer to objects detected orbiting the Earth but have not yet been identified or cataloged. These objects could be anything from previously untracked satellites, spent rocket stages, debris from satellite collisions, or even natural meteoroids temporarily captured by Earth's gravity.

Loading next visibility...
Identifier
51843, 2022-019V
Orbit
SSO
Country
Flag of CNCN / PRC
Related business
None
Manufacturer
Unknown
Mission
Non-operational Commercial Radar Imaging
Bus & Motor
Unknown
Mass
Unknown
Launch date (UTC)
2022-02-27 (4 years ago)
Launch vehicle
CHANG ZHENG 8
Launch site
Wenchang Satellite Launch Center (WSC)
Object type
Unknown
Shape & HBR
Box + 2 Pan, 2.0 m
Radar Cross Section
2.315 m², Large (>1 m²)

Expand to show TLE details & history
Last TLE update: 1 day ago

TLE from 1 day ago
0 OBJECT V
1 51843U 22019V   26172.53916939  .00043004  00000-0  63205-3 0  9998
2 51843  97.3526 259.9682 0006553 143.1777 216.9929 15.55340384240063
Epoch: 2026-06-21T12:56Z
TLE epoch observation values (Epoch: 2026-06-21T12:56:24.235Z)
Latitude
0.00003°
Longitude
156.12923°
Altitude
407.853 km
Speed
7.664 km/s
True Right ascension
17h 19m 52s
True Declination
0° 00' 00"
Sunlit
Object was in full shadow at epoch
Visualization orbit readout
Latitude
Unknown
Longitude
Unknown
Altitude
Unknown
Speed
Unknown
Apparent Right ascension
Unknown
Apparent Declination
Unknown
Sunlit
N/A
Visualization observer readout
Local Sidereal Time
00:56:29
Azimuth
Unknown
Elevation
Unknown
Doppler factor
Unknown
Orbital elements
Apogee altitude
402.52 km
Perigee altitude
393.639 km
Semi-major axis
6,776.217 km
Eccentricity
0.00066
Inclination
97.3526°
RAAN
259.9682°
Arg. of periapsis
143.1777°
True anomaly
216.94775°
Mean anomaly
216.9929°
Eccentric anomaly
216.97032°
Mean motion
3.89101 °/min
Orbital period
92.52 mins
BSTAR
0.00063205
Loading maneuver chart data...
Computing Atmospheric mass density...
Loading historical data...
Loading historical data...
Loading historical data...
Loading historical data...
Loading historical data...
Loading historical data...
Loading historical data...

Documentation

Showing up to 5 results
|